Regional Weather Roundup
Issued by NWS

Home | Current Version | Previous Version | Graphics & Text | Print | Product List | Glossary On
Versions: 1 2 3 4 5 6 7 8 9 10 11 12 13 14 15 16 17 18 19 20 21 22 23 24 25 26 27 28 29 30 31 32 33 34 35 36 37 38 39 40 41 42 43 44 45 46 47 48 49 50
000
ASUS43 KIND 030609
RWRIN

WEATHER ROUNDUP FOR INDIANA
NATIONAL WEATHER SERVICE INDIANAPOLIS IN
100 AM EST TUE MAR 03 2015

NOTE: "FAIR" INDICATES FEW OR NO CLOUDS BELOW 12,000 FEET WITH NO
SIGNIFICANT WEATHER AND/OR OBSTRUCTIONS TO VISIBILITY.

* - STATION DOES NOT REPORT WEATHER SUCH AS PRECIPITATION OR FOG.

+ - STATION NOT QUALITY CONTROLLED BY THE NATIONAL WEATHER SERVICE.
    USE DATA WITH CAUTION...ESPECIALLY DEWPOINT AND RELATIVE
    HUMIDITY OBSERVATIONS.

INZ001>003-010>013-019-020-030700-
NORTHWEST INDIANA

CITY           SKY/WX    TMP DP  RH WIND       PRES   REMARKS
GARY /AIRPORT/ CLOUDY    28  14  54 SE5       30.25F WCI  23
KNOX *+          N/A     27   1  33 S7        30.26F WCI  19
LA PORTE +     CLOUDY    27  18  68 S5        30.27F WCI  22
6HR MIN TEMP:  27; 6HR MAX TEMP:  28;

MICHIGAN CITY+ CLOUDY    27  10  50 SE3       30.27F
MONTICELLO +   MOCLDY    25  16  67 SE3       30.26F
6HR MIN TEMP:  24; 6HR MAX TEMP:  26;

RENSSELAER +   CLOUDY    28  21  74 E6        30.25F WCI  22
VALPARAISO     CLOUDY    25  15  66 SE7       30.25F WCI  17
6HR MIN TEMP:  24; 6HR MAX TEMP:  26;


$$

LMZ046-743>745-030700-
SOUTHERN LAKE MICHIGAN

STATION/POSITION TIME  TEMP WIND        PRES
                       AIR  DIR/SP/G
                 (UTC) (F)  (DEG/KT/KT) (MB)
MICHIGAN CITY    0600   26  140/  6/  7   N/A

$$

INZ004-005-014>016-021>024-030700-
NORTH CENTRAL INDIANA

CITY           SKY/WX    TMP DP  RH WIND       PRES   REMARKS
GOSHEN         CLOUDY    25  15  66 SE7       30.27F WCI  17
6HR MIN TEMP:  21; 6HR MAX TEMP:  25;

LOGANSPORT +   CLOUDY    25  19  80 E6        30.27F WCI  18
PERU/GRISSOM   CLOUDY    24  17  74 SE8       30.24F WCI  15
6HR MIN TEMP:  21; 6HR MAX TEMP:  24;

ROCHESTER +    CLOUDY    28  18  64 SE5       30.27F WCI  23
SOUTH BEND     CLOUDY    26  14  60 SE7       30.27F WCI  18
6HR MIN TEMP:  26; 6HR MAX TEMP:  28;

WARSAW +       CLOUDY    25  14  63 SE3       30.26F

$$

INZ006>009-017-018-025>027-030700-
NORTHEAST INDIANA

CITY           SKY/WX    TMP DP  RH WIND       PRES   REMARKS
ANGOLA *+      CLOUDY    21  16  79 S5        30.27F WCI  15
AUBURN +       CLOUDY    27  16  63 CALM      30.30F
FORT WAYNE     CLOUDY    22  15  75 E6        30.30F WCI  14
6HR MIN TEMP:  18; 6HR MAX TEMP:  23;

HUNTINGTON +   CLOUDY    23  12  62 E3        30.27F
6HR MIN TEMP:  21; 6HR MAX TEMP:  24;


$$

INZ028-029-035-036-043>045-051>053-030700-
WEST CENTRAL INDIANA

CITY           SKY/WX    TMP DP  RH WIND       PRES   REMARKS
CRAWFORDSVL +  FAIR      24  12  62 SE8       30.23F WCI  14
6HR MIN TEMP:  21; 6HR MAX TEMP:  25;

GREENCASTLE +  FAIR      27  12  54 SE7       30.25F WCI  19
LAFAYETTE      FAIR      25  15  66 SE8       30.25F WCI  16
6HR MIN TEMP:  22; 6HR MAX TEMP:  26;

TERRE HAUTE    FAIR      27  15  61 SE8       30.24F WCI  19
6HR MIN TEMP:  24; 6HR MAX TEMP:  30;


$$

INZ030>032-037>040-046>048-054>057-064-065-030700-
CENTRAL INDIANA

CITY           SKY/WX    TMP DP  RH WIND       PRES   REMARKS
CP ATTERBURY + FAIR      27  18  69 CALM      30.27F
FRANKFORT +    FAIR      24  17  76 E7        30.26F WCI  16
6HR MIN TEMP:  16; 6HR MAX TEMP:  25;

GREENWOOD *+   FAIR      25  12  58 SE6       30.25F WCI  18
INDIANAPOLIS   CLOUDY    26  15  63 SE8       30.24F WCI  18
6HR MIN TEMP:  26; 6HR MAX TEMP:  27;

-EAGLE CREEK   FAIR      26  16  65 SE5       30.24F WCI  20
6HR MIN TEMP:  24; 6HR MAX TEMP:  28;

KOKOMO *+      FAIR      25  16  68 SE9       30.25F WCI  15
6HR MIN TEMP:  19; 6HR MAX TEMP:  25;

MARION +       CLOUDY    24  14  66 SE8       30.26F WCI  15
MT COMFORT *+  FAIR      25   9  50 E7        30.24F WCI  17
SHELBYVILLE    FAIR      26  16  65 E10       30.24F WCI  16
6HR MIN TEMP:  23; 6HR MAX TEMP:  27;

ZIONSVILLE +   FAIR      25  15  65 SE7       30.24F WCI  17
6HR MIN TEMP:  23; 6HR MAX TEMP:  27;


$$

INZ033-034-041-042-049-050-058-059-030700-
EAST CENTRAL INDIANA

CITY           SKY/WX    TMP DP  RH WIND       PRES   REMARKS
MUNCIE         FAIR      22  14  71 E7        30.26F WCI  13
6HR MIN TEMP:  20; 6HR MAX TEMP:  25;


$$

INZ060-061-067>069-081>083-085>088-030700-
SOUTHWEST INDIANA

CITY           SKY/WX    TMP DP  RH WIND       PRES   REMARKS
EVANSVILLE     CLOUDY    34  20  56 CALM      30.26S
6HR MIN TEMP:  31; 6HR MAX TEMP:  34;

HUNTINGBURG *+ MOCLDY    30  19  64 SE7       30.24F WCI  23
6HR MIN TEMP:  28; 6HR MAX TEMP:  34;

WASHINGTON +   FAIR      27  17  64 NE3       30.25S
6HR MIN TEMP:  25; 6HR MAX TEMP:  30;


$$

INZ062-063-066-070>080-084-089>092-030700-
SOUTH CENTRAL AND SOUTHEAST INDIANA

CITY           SKY/WX    TMP DP  RH WIND       PRES   REMARKS
BLOOMINGTON    FAIR      27  16  63 SE5       30.24F WCI  22
6HR MIN TEMP:  27; 6HR MAX TEMP:  32;

NORTH VERNON + FAIR      30  14  51 E6        30.26F WCI  24

$$




USA.gov is the U.S. government's official web portal to all federal, state and local government web resources and services.